New Delhi, India

1:51 AM IST on June 29, 2017 (GMT +0530)
Indira Gandhi International

Weather History for VIDP - September, 2012

Change the Weather History Date:

Wednesday, September 12, 2012

  Actual Average Record
Temperature  
Mean Temperature 86 °F -  
Max Temperature 91 °F 90 °F 98 °F (2001)
Min Temperature 80 °F 72 °F 75 °F (2002)
Cooling Degree Days 20    
Growing Degree Days 36 (Base 50)    
Moisture  
Dew Point 78 °F    
Average Humidity 80    
Maximum Humidity 94    
Minimum Humidity 63    
Precipitation  
Precipitation 0.00 in - - ()
Sea Level Pressure  
Sea Level Pressure 29.63 in    
Wind  
Wind Speed 3 mph ()    
Max Wind Speed 9 mph    
Max Gust Speed -    
Visibility 1.6 miles    
Events Rain , Thunderstorm    
Averages and records for this station are not official NWS values.
T = Trace of Precipitation, MM = Missing Value Source: Averaged Metar Reports

Daily Weather History Graph

Daily Weather History Graph

Search for Another Location

Airport or City:

Trip Planner

Search our weather history database for the weather conditions in past years. The results will help you decide how hot, cold, wet, or windy it might be!

Date:

Astronomy

Sep. 12, 2012 Rise Set
Actual Time 6:05 AM IST 6:29 PM IST
Civil Twilight 5:41 AM IST 6:53 PM IST
Nautical Twilight 5:13 AM IST 7:21 PM IST
Astronomical Twilight 4:45 AM IST 7:49 PM IST
Moon 2:10 AM IST (9/12) 3:47 PM IST (9/12)
Length of Visible Light 13h 12m
Length of Day
12h 24m
Waning Crescent, 17% of the Moon is Illuminated
Sep 12
Waning Crescent
Sep 16
New
Sep 23
First Quarter
Sep 30
Full
Oct 8
Last Quarter

Hourly Weather History & Observations

Time (IST) Temp. Heat Index Dew Point Humidity Pressure Visibility Wind Dir Wind Speed Gust Speed Precip Events Conditions
12:00 AM 84.2 °F 94.1 °F 77.0 °F 79% 29.68 in 1.4 mi Calm Calm - N/A   Scattered Clouds
12:30 AM 84.2 °F 94.1 °F 77.0 °F 79% 29.65 in 1.4 mi ESE 4.6 mph - N/A   Scattered Clouds
1:30 AM 84.2 °F 94.1 °F 77.0 °F 79% 29.65 in 1.6 mi ESE 3.5 mph - N/A   Scattered Clouds
2:00 AM 84.2 °F 94.1 °F 77.0 °F 79% 29.65 in 1.7 mi SE 4.6 mph - N/A   Scattered Clouds
2:30 AM 82.4 °F 90.9 °F 77.0 °F 84% 29.62 in 1.6 mi ESE 5.8 mph - N/A   Scattered Clouds
3:00 AM 82.4 °F 90.9 °F 77.0 °F 84% 29.62 in 1.6 mi ESE 4.6 mph - N/A   Scattered Clouds
3:30 AM 82.4 °F 90.9 °F 77.0 °F 84% 29.62 in 1.6 mi East 4.6 mph - N/A   Scattered Clouds
4:00 AM 82.4 °F 90.9 °F 77.0 °F 84% 29.62 in 1.6 mi ESE 3.5 mph - N/A   Scattered Clouds
4:30 AM 82.4 °F 90.9 °F 77.0 °F 84% 29.62 in 1.6 mi ESE 4.6 mph - N/A   Scattered Clouds
5:00 AM 82.4 °F 92.4 °F 78.8 °F 89% 29.62 in 1.6 mi SE 3.5 mph - N/A   Scattered Clouds
5:30 AM 82.4 °F 92.4 °F 78.8 °F 89% 29.62 in 1.6 mi Calm Calm - N/A   Partly Cloudy
6:00 AM 82.4 °F 92.4 °F 78.8 °F 89% 29.65 in 1.6 mi Calm Calm - N/A   Partly Cloudy
6:30 AM 80.6 °F 88.1 °F 78.8 °F 94% 29.65 in 1.6 mi Calm Calm - N/A   Partly Cloudy
7:00 AM 82.4 °F 92.4 °F 78.8 °F 89% 29.65 in 1.6 mi Calm Calm - N/A   Partly Cloudy
7:30 AM 84.2 °F 96.1 °F 78.8 °F 84% 29.65 in 1.7 mi East 4.6 mph - N/A   Partly Cloudy
8:30 AM 86.0 °F 99.3 °F 78.8 °F 79% 29.68 in 1.9 mi East 6.9 mph - N/A   Partly Cloudy
9:00 AM 87.8 °F 104.9 °F 80.6 °F 79% 29.68 in 1.9 mi East 8.1 mph - N/A   Partly Cloudy
9:30 AM 87.8 °F 102.5 °F 78.8 °F 75% 29.68 in 1.9 mi East 8.1 mph - N/A   Haze
10:00 AM 89.6 °F 104.7 °F 78.8 °F 70% 29.68 in 1.9 mi East 4.6 mph - N/A   Haze
10:30 AM 91.4 °F 107.2 °F 78.8 °F 66% 29.68 in 1.9 mi ESE 5.8 mph - N/A   Haze
11:00 AM 91.4 °F 105.1 °F 77.0 °F 63% 29.68 in 1.9 mi ESE 4.6 mph - N/A   Haze
11:30 AM 91.4 °F 105.1 °F 77.0 °F 63% 29.65 in 1.9 mi SSE 4.6 mph - N/A   Haze
12:00 PM 91.4 °F 105.1 °F 77.0 °F 63% 29.65 in 1.9 mi South 4.6 mph - N/A   Haze
12:30 PM 91.4 °F 105.1 °F 77.0 °F 63% 29.65 in 1.9 mi SSE 4.6 mph - N/A   Haze
1:00 PM 91.4 °F 107.2 °F 78.8 °F 66% 29.62 in 1.9 mi East 5.8 mph - N/A   Haze
1:30 PM 91.4 °F 105.1 °F 77.0 °F 63% 29.62 in 1.9 mi East 6.9 mph - N/A   Haze
2:00 PM 91.4 °F 105.1 °F 77.0 °F 63% 29.59 in 1.9 mi SE 5.8 mph - N/A   Haze
2:30 PM 87.8 °F 99.7 °F 77.0 °F 70% 29.59 in 1.6 mi South 5.8 mph - N/A Rain Rain
3:30 PM 80.6 °F 88.1 °F 78.8 °F 94% 29.59 in 1.2 mi WNW 9.2 mph - N/A Rain , Thunderstorm Light Thunderstorms and Rain
4:00 PM 82.4 °F 92.4 °F 78.8 °F 89% 29.56 in 1.4 mi NNW 6.9 mph - N/A Rain , Thunderstorm Light Thunderstorms and Rain
4:30 PM 84.2 °F 96.1 °F 78.8 °F 84% 29.56 in 1.4 mi NW 4.6 mph - N/A   Overcast
5:00 PM 84.2 °F 96.1 °F 78.8 °F 84% 29.56 in 1.6 mi NNE 3.5 mph - N/A   Overcast
5:30 PM 84.2 °F 96.1 °F 78.8 °F 84% 29.56 in 1.4 mi NNE 4.6 mph - N/A   Overcast
6:00 PM 84.2 °F 98.3 °F 80.6 °F 89% 29.59 in 1.3 mi North 3.5 mph - N/A   Overcast
6:30 PM 84.2 °F 96.1 °F 78.8 °F 84% 29.59 in 1.3 mi East 3.5 mph - N/A   Overcast
7:00 PM 86.0 °F 99.3 °F 78.8 °F 79% 29.59 in 1.3 mi SSE 5.8 mph - N/A   Overcast
7:30 PM 86.0 °F 99.3 °F 78.8 °F 79% 29.59 in 1.6 mi South 5.8 mph - N/A   Overcast
8:00 PM 84.2 °F 98.3 °F 80.6 °F 89% 29.62 in 1.7 mi SE 2.3 mph - N/A   Overcast
9:00 PM 84.2 °F 96.1 °F 78.8 °F 84% 29.62 in - Calm Calm - N/A   Scattered Clouds
9:30 PM 84.2 °F 96.1 °F 78.8 °F 84% 29.62 in - Calm Calm - N/A   Scattered Clouds
10:00 PM 84.2 °F 98.3 °F 80.6 °F 89% 29.65 in - Calm Calm - N/A   Scattered Clouds
10:40 PM 84.2 °F 96.1 °F 78.8 °F 84% 29.65 in - Calm Calm - N/A   Scattered Clouds
11:00 PM 84.2 °F 98.3 °F 80.6 °F 89% 29.65 in - Calm Calm - N/A   Scattered Clouds
11:30 PM 84.2 °F 98.3 °F 80.6 °F 89% 29.65 in - Calm Calm - N/A   Scattered Clouds